Location: Cregnards
(46.3209°N, 3.3403°E)
Time: 05:55:52
(UTC+00:00)

Daily predictions for brighter satellites

Satellite Brightness Start Highest point End
(mag) Time Altitude Azimuth Time Altitude Azimuth Time Altitude Azimuth
Cosmos 1025 Rocket 4.4 00:08:39 10° N 00:12:13 32° ENE 00:12:13 32° ENE
NOSS 0 Rocket 4.3 00:07:55 10° NNW 00:14:06 61° ENE 00:15:55 44° ESE
CZ-4 R/B 4.1 00:09:47 10° NNE 00:14:24 67° ENE 00:14:24 67° ENE
CZ-2D R/B 4.0 00:11:50 10° NE 00:15:38 19° E 00:16:30 18° ESE
Lacrosse 4 Rocket 2.3 00:17:22 47° NNW 00:17:22 47° NNW 00:20:44 10° NNE
COSMOS 2428 2.6 00:11:00 10° NNW 00:16:46 85° WSW 00:16:52 84° SW
Cosmos 2360 Rocket 3.5 00:13:46 10° NW 00:17:41 27° W 00:17:41 27° W
GEOS 3 Rocket 4.5 00:13:38 10° NE 00:18:01 38° ESE 00:18:01 38° ESE
Lacrosse 5 4.2 00:15:46 10° WNW 00:16:29 13° W 00:16:29 13° W
Cosmos 1503 Rocket 4.0 00:21:18 86° NNW 00:21:18 86° NNW 00:26:38 10° NNE
Meteor 2-9 Rocket 4.1 00:27:29 77° WSW 00:27:40 78° WNW 00:33:22 10° N
Cosmos 1782 Rocket 4.3 00:30:21 48° NNW 00:30:21 48° NNW 00:33:49 10° N
Cosmos 2297 Rocket 3.2 00:30:52 32° ESE 00:30:59 32° ESE 00:35:56 10° NE
Cosmos 2219 4.0 00:32:41 38° ESE 00:32:44 38° ESE 00:37:53 10° NE
Cosmos 1980 4.1 00:27:41 10° NNW 00:33:19 58° ENE 00:34:49 44° ESE
Cosmos 1464 Rocket 3.9 00:34:33 63° SW 00:35:21 70° W 00:41:35 10° N
Cosmos 2333 Rocket 2.6 00:30:41 10° NW 00:35:43 49° W 00:35:43 49° W
Cosmos 1975 4.3 00:41:49 32° NW 00:41:49 32° NW 00:44:36 10° N
Cosmos 2237 Rocket 2.4 00:37:29 10° NNW 00:43:08 64° ENE 00:44:32 48° ESE
Helios 1B rocket 3.1 00:50:11 10° N 00:53:28 49° NNW 00:53:28 49° NNW
Nadezhda 4 Rocket 4.0 00:51:56 10° NNW 00:58:09 64° W 00:58:57 58° SW
ATLAS 3B R/B 3.8 00:54:42 19° W 00:58:52 36° NW 01:05:00 10° NNE
Cosmos 1538 Rocket 4.1 00:54:00 10° NNW 00:59:10 70° ENE 00:59:58 59° ESE
In-Cosmos 22 4.0 00:54:48 10° N 01:00:27 86° E 01:01:07 70° SSE
Okean 2 Rocket 3.3 01:02:15 64° NW 01:02:15 64° NW 01:06:18 10° N
SL-16 R/B 2.8 00:59:59 36° SE 01:02:35 64° ENE 01:08:47 10° N
Cosmos 2034 Rocket 4.1 01:02:10 53° WSW 01:03:13 61° WNW 01:09:29 10° N
Cosmos 1707 4.0 01:01:42 10° NNW 01:04:13 35° NW 01:04:13 35° NW
USA 215 4.1 01:00:13 10° ENE 01:06:00 32° SE 01:06:48 31° SE
Cosmos 773 Rocket 4.0 01:02:31 10° NNW 01:07:22 64° W 01:07:22 64° W
Cosmos 1092 Rocket 3.9 01:05:09 10° N 01:11:25 80° W 01:12:41 59° SSW
Meteor 1-12 Rocket 4.3 01:11:31 59° SW 01:12:30 70° WNW 01:18:31 10° N
Cosmos 1300 Rocket 4.0 01:13:42 52° NW 01:13:42 52° NW 01:17:28 10° N
Cosmos 1805 4.3 01:13:32 39° E 01:13:32 39° E 01:16:54 10° NNE
Resurs 1-4 Rocket 2.4 01:08:20 10° NNE 01:13:32 55° E 01:14:25 49° SE
Uosat 12 SS-18 rocket 4.2 01:18:27 74° SE 01:18:34 74° SE 01:23:07 10° NE
Okean 1 Rocket 3.3 01:18:56 58° E 01:18:59 58° E 01:23:16 10° NNE
Meteor 1-15 Rocket 4.3 01:17:58 55° SSE 01:19:08 71° E 01:24:44 10° NNE
Cosmos 2227 Rocket 2.3 01:19:04 56° SSE 01:20:00 66° ESE 01:25:38 10° NNE
Cosmos 1674 3.2 01:18:33 10° N 01:21:38 56° NNE 01:21:38 56° NNE
DELTA 2 DEB (DPAF) 4.1 01:25:26 75° WNW 01:25:26 75° WNW 01:29:44 10° NNW
Cosmos 1733 4.1 01:27:32 40° E 01:27:32 40° E 01:31:07 10° NNE
AQUA 4.4 01:23:15 10° NNE 01:27:53 48° E 01:28:45 43° SE
UNK 3.6 01:27:34 73° SSE 01:28:03 88° ENE 01:32:45 10° NNW
Cosmos 2151 Rocket 4.1 01:33:15 46° WNW 01:33:15 46° WNW 01:37:21 10° N
Cosmos 2219 Rocket 4.0 01:33:55 10° WNW 01:36:25 17° W 01:36:25 17° W
USA 267 4.2 01:32:51 10° E 01:39:05 49° NNE 01:45:20 10° NW
SJ 16-02 1.9 01:40:06 45° SE 01:40:41 48° ESE 01:44:57 10° NNE
Cosmos 2082 4.0 01:39:45 42° SSE 01:41:17 56° ESE 01:46:47 10° NE
Cosmos 1680 Rocket 4.0 01:36:51 10° NNW 01:42:02 56° ENE 01:45:53 17° SE
Cosmos 2344 4.4 01:35:38 10° NW 01:45:18 71° WSW 01:58:47 10° SSE
Timation 2 Rocket 4.5 01:44:08 34° WSW 01:46:19 47° NW 01:52:09 10° NNE
DNEPR-1 R/B 3.8 01:42:23 10° NW 01:48:12 77° WSW 01:49:48 44° SSE
IRAS Rocket 4.3 01:48:36 49° SW 01:49:38 56° WSW 01:55:08 10° NNW
SL-16 R/B 2.2 01:46:48 10° NNW 01:52:34 82° ENE 01:56:46 19° SSE
Cosmos 1455 Rocket 4.1 01:51:23 29° SE 01:52:59 40° E 01:57:07 10° NNE
SL-4 R/B 2.7 01:54:33 35° ESE 01:54:33 35° ESE 01:56:40 10° ESE
Cosmos 1461 3.8 01:52:47 37° SE 01:53:24 39° ESE 01:57:37 10° NE
Meteor 1-24 Rocket 3.6 01:50:37 10° N 01:56:08 79° E 01:58:47 31° SSE
Lacrosse 4 Rocket 4.2 01:55:12 10° NW 01:56:11 11° NW 01:57:09 10° NNW
CZ-2D R/B 2.2 01:50:44 10° N 01:56:11 68° WNW 01:57:49 45° SW
IRS-1D 3.8 01:51:34 10° NNE 01:56:36 62° ESE 01:58:31 37° SSE
GEOS 3 Rocket 4.3 01:51:36 10° NNE 01:56:47 48° NW 01:59:07 29° W
NPP 3.6 01:52:13 10° NNE 01:57:37 77° WNW 01:59:17 46° SSW
ADEOS II 2.5 01:53:55 10° NNE 01:59:06 56° E 02:01:26 31° SSE
Cosmos 1892 Rocket 3.7 01:56:50 10° N 02:01:19 71° E 02:03:00 37° SSE
CZ-4B R/B 3.3 01:57:37 10° NNE 02:02:24 78° ESE 02:03:51 45° S
SL-24 R/B 4.3 02:01:32 42° S 02:03:13 89° E 02:08:16 10° N
Meteor 2-5 Rocket 3.6 01:58:18 10° NNW 02:03:56 70° W 02:05:59 39° SSW
Cosmos 2180 Rocket 4.4 02:03:22 36° S 02:06:06 88° WNW 02:12:16 10° N
USA 229 DEB 4.3 02:05:21 26° S 02:08:32 44° ESE 02:14:56 10° NE
USA 229 4.3 02:05:27 26° S 02:08:37 44° ESE 02:14:59 10° NE
Cosmos 2279 Rocket 4.0 02:09:05 37° SSW 02:11:31 65° W 02:17:43 10° N
Cosmos 2263 Rocket 3.9 02:07:55 13° SSE 02:11:46 25° ESE 02:16:13 10° NE
Cosmos 923 Rocket 4.0 02:07:13 10° NNW 02:12:30 64° WSW 02:14:41 35° S
Cosmos 158 Rocket 4.0 02:07:12 10° NNW 02:12:36 82° WSW 02:16:10 22° SSE
Cosmos 2297 Rocket 2.8 02:12:41 31° WSW 02:14:52 44° NW 02:20:17 10° NNE
Cosmos 1626 2.0 02:12:39 10° NNW 02:16:21 64° W 02:16:34 63° WSW
Cosmos 2219 4.1 02:14:36 27° W 02:16:53 37° NW 02:22:06 10° NNE
Cosmos 1766 3.8 02:17:11 41° W 02:17:26 42° WNW 02:21:09 10° N
NOSS 3-1 (A) 4.4 02:16:55 21° SSE 02:19:52 35° ESE 02:25:21 10° NE
Cosmos 2098 Rocket 3.6 02:15:29 10° N 02:20:21 83° E 02:25:09 17° S
Meteor 1-22 Rocket 4.0 02:19:30 37° SSW 02:21:35 73° WNW 02:26:55 10° N
Meteor 1-28 Rocket 3.8 02:20:45 19° SSE 02:23:20 55° ENE 02:27:04 10° N
Cosmos 2237 Rocket 3.5 02:22:32 10° NW 02:26:18 21° W 02:26:18 21° W
H-2A R/B 4.1 02:26:58 10° SE 02:30:26 27° ENE 02:33:55 10° N
Cosmos 1470 2.7 02:32:06 38° S 02:33:34 89° ENE 02:37:34 10° N
Cosmos 1544 Rocket 3.6 02:37:11 28° S 02:39:33 86° E 02:44:03 10° N
SeaSat 1 4.4 02:36:01 10° NE 02:39:51 22° ESE 02:43:39 10° SSE
COBE Rocket 4.3 02:39:56 32° SW 02:41:16 39° W 02:45:37 10° NNW
Cosmos 1607 4.2 02:37:12 10° NW 02:43:21 48° WSW 02:49:29 10° S
SL-16 R/B 3.6 02:45:05 22° WSW 02:46:38 24° W 02:51:37 10° NW
FALCON 9 DEB 3.0 02:44:23 10° WNW 02:47:53 90° N 02:51:21 10° ESE
USA 215 3.3 02:42:52 10° NE 02:49:26 83° NNW 02:54:08 21° WSW
IRS-P3 4.2 02:47:00 10° N 02:52:20 68° WNW 02:55:46 22° SSW
Resurs 1-4 Rocket 3.5 02:48:52 10° N 02:52:58 23° WNW 02:55:29 17° W
Okean 1-7 Rocket 4.0 02:49:44 10° NNW 02:53:55 43° W 02:55:57 26° SSW
SL-14 R/B 4.3 02:50:56 10° NNW 02:54:14 26° W 02:54:46 25° WSW
Cosmos 1943 3.6 02:52:45 10° NNW 02:58:22 66° ENE 03:03:57 10° SE
Cosmos 1602 Rocket 3.7 02:54:30 10° N 02:58:54 75° E 03:03:13 10° SSE
Cosmos 2266 Rocket 4.3 02:57:14 10° NNW 03:03:17 47° W 03:08:13 15° SSW
Cosmos 2227 Rocket 3.7 03:00:53 14° W 03:04:33 25° NW 03:09:10 10° N
Cosmos 1758 3.9 03:09:52 22° SW 03:12:00 41° WNW 03:15:50 10° N
Meteor 1-21 Rocket 4.1 03:06:43 10° NNW 03:12:18 80° W 03:17:50 10° S
Cosmos 1937 Rocket 3.7 03:09:43 19° SW 03:13:24 58° WNW 03:18:41 10° NNE
ERS-2 2.7 03:11:17 10° SSE 03:14:52 60° ENE 03:18:28 10° N
MSX 4.1 03:10:24 10° NNE 03:16:10 68° ESE 03:21:54 10° S
CSL-04 DEB 4.2 03:12:48 10° SSE 03:16:44 81° WSW 03:20:41 10° NNW
Cosmos 2227 4.3 03:12:17 15° SSW 03:17:09 89° ESE 03:22:58 10° NNE
CZ-2C R/B 2.9 03:13:20 10° NNE 03:17:13 72° ESE 03:21:00 10° S
NOSS 2-3 (E) 3.7 03:14:35 19° SW 03:17:39 85° SE 03:22:42 10° NE
ARIANE 5 R/B 2.8 03:13:37 10° N 03:18:44 56° WNW 03:23:01 15° SW
Cosmos 1726 2.2 03:16:22 18° SSW 03:18:55 57° WNW 03:22:32 10° N
SJ 16-02 3.0 03:17:05 14° W 03:19:32 20° WNW 03:22:52 10° N
Cosmos 1898 Rocket 4.2 03:16:03 18° WSW 03:19:33 39° WNW 03:24:27 10° N
CZ-4B R/B 4.1 03:18:21 10° ESE 03:20:56 22° ENE 03:23:29 10° NNE
Meteor 2-14 Rocket 4.4 03:14:57 10° NNW 03:20:57 65° W 03:26:56 10° S
USA 267 3.2 03:15:23 10° SE 03:21:55 73° SW 03:28:28 10° NW
Nadezhda 2 Rocket 4.5 03:17:39 10° NNW 03:23:54 71° W 03:30:00 10° S
CZ-4C R/B 2.7 03:21:24 10° S 03:24:37 82° WSW 03:27:56 10° NNW
NOSS 3-1 (C) 3.6 03:20:59 16° WSW 03:25:25 59° NW 03:31:50 10° NE
Cosmos 1340 Rocket 3.9 03:24:06 17° WSW 03:26:22 28° WNW 03:29:50 10° N
IDEFIX/ARIANE 42P 2.6 03:23:29 10° N 03:28:40 68° WNW 03:33:49 10° SSW
Cosmos 1908 3.4 03:26:43 10° S 03:30:36 76° E 03:34:32 10° NNE
Cosmos 1626 Rocket 4.1 03:27:17 10° NNW 03:31:16 37° W 03:35:14 10° SSW
SL-08 R/B 4.3 03:28:36 12° SSW 03:32:25 29° W 03:36:43 10° NW
Meteor 1-16 Rocket 4.1 03:27:07 10° S 03:32:29 85° WNW 03:38:02 10° N
SL-4 R/B 2.8 03:30:22 12° W 03:32:29 20° SW 03:35:04 10° S
Cosmos 1461 4.3 03:29:10 13° WSW 03:32:36 31° NW 03:36:43 10° NNE
Landsat 5 3.3 03:28:57 10° S 03:32:50 73° WSW 03:36:53 10° NNW
Cosmos 372 Rocket 4.0 03:27:55 11° SSW 03:32:55 80° WNW 03:38:12 10° NNE
Cosmos 1953 2.7 03:30:43 13° SSW 03:34:02 46° WNW 03:37:57 10° N
ATLAS CENTAUR R/B 3.1 03:31:05 10° S 03:34:38 27° ESE 03:38:03 10° ENE
CZ-2D R/B 4.3 03:33:06 10° NNW 03:35:15 12° NW 03:37:24 10° WNW
CZ-2C R/B 3.2 03:31:19 10° NNE 03:35:44 47° E 03:40:11 10° S
SL-16 R/B 3.7 03:32:33 10° WNW 03:35:54 16° W 03:38:31 12° SW
CZ-2D R/B 3.9 03:33:38 10° N 03:37:29 42° WNW 03:40:58 12° SW
ADEOS II 3.5 03:34:21 10° N 03:38:25 23° WNW 03:42:21 10° WSW
NOSS 2-3 (D) 3.8 03:37:43 13° SW 03:41:31 68° NW 03:46:36 10° NE
Cosmos 2228 3.2 03:44:55 10° S 03:49:16 81° E 03:53:41 10° N
Cosmos 1758 Rocket 3.5 03:45:40 10° NNW 03:49:56 63° W 03:54:12 10° S
Cosmos 1125 Rocket 3.9 03:45:36 10° S 03:50:45 66° ESE 03:56:00 10° NNE
Cosmos 1328 3.8 03:48:50 10° NNW 03:52:47 62° W 03:56:44 10° S
SAR-Lupe-4 4.2 03:49:26 10° SSE 03:52:58 60° ENE 03:56:31 10° N
Cosmos 2263 Rocket 2.5 03:49:52 10° SW 03:55:19 54° WNW 04:00:47 10° NNE
Aureole 3 4.4 03:53:44 10° S 03:58:55 88° W 04:05:33 10° N
USA 229 DEB 4.2 03:53:07 10° WSW 03:59:27 48° NW 04:06:10 10° NE
USA 229 4.2 03:53:13 10° WSW 03:59:31 48° NW 04:06:14 10° NE
Cosmos 1703 3.7 03:56:42 10° NNW 04:00:28 42° W 04:04:13 10° SSW
ATLAS 3B CENTAUR R/B 4.4 03:55:23 10° WSW 04:00:32 15° SSW 04:04:07 10° S
Cosmos 494 Rocket 4.1 03:59:41 10° NNW 04:04:52 86° ENE 04:10:04 10° SSE
ADEOS Rocket 4.0 04:00:28 10° SSE 04:08:01 73° ENE 04:15:48 10° N
